Theta_e
307 307 307 307 307 307 307 307 307 307 307 307 307 306 306 306 306 307 307 307 307 308 308 308 308 309 309 309 309 310 310 311 312 313 315 317 316 315 316 316 315 313 313 313 313 314 314 314 314 313 317 319 317 318 317 319 327 332 332 325 322 327 328 327 328 324 319 321 322 319 316 315 317 319 316 314 316 320 317 315 316 314 313 314 314 313 312 314
308 308 308 308 307 307 308 308 308 308 308 308 308 307 307 307 307 307 307 307 308 308 308 308 309 309 309 309 309 310 311 312 313 314 316 318 317 315 317 316 314 313 313 313 314 314 316 316 313 315 320 319 317 319 320 318 323 337 333 319 326 337 332 328 329 324 319 318 319 319 317 315 314 316 314 314 319 320 317 315 314 315 316 314 312 312 312 314
308 309 309 309 308 308 308 308 308 309 309 309 309 309 308 308 308 308 308 308 308 308 308 308 309 309 309 309 310 312 313 313 314 315 316 317 316 316 315 315 313 313 313 313 314 313 315 316 312 317 321 318 318 321 324 320 320 331 327 321 336 338 328 327 326 323 320 317 317 318 316 315 315 315 313 314 318 319 317 316 315 315 316 316 315 311 311 315
308 309 309 309 309 309 308 308 308 308 309 309 309 310 310 309 308 309 310 310 309 309 309 309 309 310 310 311 313 313 313 315 315 316 315 315 314 314 314 314 313 313 313 313 314 314 315 314 312 318 321 318 321 320 323 324 318 321 321 327 336 327 322 325 324 323 321 317 315 316 316 316 315 314 314 314 316 318 317 316 316 316 315 316 315 310 309 313
308 309 309 309 309 310 310 310 308 308 309 310 310 310 311 310 309 309 310 311 310 311 311 311 311 312 313 314 315 314 315 317 316 314 314 314 314 314 313 314 314 313 313 314 315 315 314 313 313 319 320 318 320 318 321 324 319 319 322 328 330 322 318 322 325 322 318 316 315 316 317 315 315 314 315 315 315 317 316 316 316 315 314 313 312 309 308 312
310 310 310 310 309 309 310 311 310 308 309 311 311 311 311 311 311 310 311 311 312 313 313 313 313 314 314 315 317 316 314 315 315 315 315 313 313 314 314 314 314 313 313 315 315 314 314 314 314 318 320 317 317 316 318 318 317 321 324 325 326 321 318 321 322 319 317 316 316 316 315 313 314 315 316 316 315 316 316 316 315 313 310 309 308 308 308 311
311 312 312 311 310 310 310 310 310 310 311 311 312 312 312 313 313 313 314 313 314 314 314 314 314 314 315 315 318 319 316 316 315 317 318 315 315 315 314 314 314 313 313 314 314 315 316 315 315 318 319 317 315 317 317 315 315 319 324 324 324 319 319 322 320 320 319 316 315 315 311 313 315 315 315 315 315 315 315 313 310 307 305 306 308 307 307 307
313 314 313 312 311 311 310 311 311 311 312 312 312 313 313 314 315 316 316 316 315 315 315 314 314 313 314 315 318 322 322 320 316 317 318 317 318 316 315 315 314 313 312 313 314 315 315 315 316 315 317 316 314 316 314 313 316 320 322 323 320 317 320 322 319 319 318 315 314 312 313 314 314 313 313 314 314 313 313 312 310 308 305 306 307 307 305 305
315 315 314 314 313 312 312 312 311 312 312 312 313 313 314 315 316 317 317 317 316 315 315 314 315 313 313 313 317 323 323 319 318 318 318 318 319 317 315 314 314 313 312 313 314 313 314 317 317 314 316 316 314 315 314 314 318 320 321 320 316 316 317 317 317 317 315 314 313 312 315 314 312 312 313 316 315 312 313 313 314 313 309 307 306 306 306 306
316 315 315 315 315 314 313 313 312 312 312 313 313 314 315 316 316 317 317 317 316 316 316 316 315 313 313 314 318 323 320 319 320 320 320 319 318 317 315 314 314 313 313 314 314 312 314 316 314 313 316 317 313 314 314 314 315 316 318 316 314 315 314 316 317 315 312 313 313 313 315 314 311 312 315 319 315 312 314 313 312 313 311 308 307 306 305 305
317 316 316 316 315 315 313 313 312 312 314 314 315 315 316 317 317 318 318 318 318 318 318 318 316 314 313 315 321 322 318 319 319 319 320 319 317 316 315 314 314 313 314 314 313 313 314 313 311 311 315 315 313 313 314 314 313 313 314 315 316 315 314 315 316 314 312 313 314 314 315 314 311 313 318 317 312 311 313 311 309 310 310 308 307 305 304 303
317 317 317 316 315 315 314 314 312 313 315 315 317 318 318 319 319 319 319 319 319 319 318 317 315 313 313 315 319 319 315 317 319 318 319 318 315 314 314 315 314 313 314 314 314 314 314 314 312 314 316 314 315 315 313 313 312 312 313 314 317 317 315 314 313 313 312 313 315 314 315 318 315 317 320 313 311 312 311 309 308 309 309 308 306 304 303 303
317 318 317 317 316 315 314 313 312 314 316 317 318 319 319 320 320 320 319 318 318 317 317 315 313 312 313 315 316 313 313 315 317 318 318 316 314 314 315 316 315 314 314 314 314 314 314 314 314 315 315 316 318 314 313 315 313 313 314 313 315 316 319 316 312 312 312 313 316 313 316 326 326 323 318 309 310 312 311 310 309 309 309 307 306 304 303 302
318 318 318 317 316 314 313 312 313 315 317 318 319 320 320 320 320 320 318 316 316 315 314 313 312 313 313 316 314 312 313 313 315 317 317 316 315 316 316 316 316 315 315 314 314 314 314 314 313 313 313 315 316 311 315 321 319 315 311 315 317 315 323 323 313 313 314 313 313 312 317 325 325 322 315 307 310 313 311 312 310 309 308 306 305 304 303 302
318 318 318 317 316 314 313 312 314 316 317 319 319 320 320 320 320 318 315 315 315 314 312 311 312 313 314 316 314 312 314 313 315 317 316 317 316 316 316 316 315 313 314 314 314 313 313 313 314 316 314 312 315 317 320 323 327 323 313 321 326 316 322 325 314 314 315 312 311 312 318 321 318 321 314 307 312 313 311 313 310 308 306 304 304 302 302 302
318 318 317 316 315 313 313 313 316 318 318 319 320 320 320 320 319 316 314 313 313 313 312 313 314 313 315 317 314 313 314 315 316 316 317 318 317 316 315 315 314 313 314 313 313 313 312 314 313 315 315 312 319 328 327 322 327 328 316 321 329 319 319 320 315 316 315 313 311 311 317 318 317 320 314 308 311 313 312 313 308 306 305 303 302 302 301 301
317 317 316 316 316 313 313 315 318 319 319 320 320 321 320 320 318 314 314 313 314 315 313 315 315 313 315 315 314 315 314 314 315 316 317 317 316 316 314 314 312 311 312 311 313 313 311 314 312 313 316 315 318 324 325 321 322 327 319 317 323 319 316 317 317 316 315 314 314 313 314 315 317 318 313 309 308 311 313 311 306 304 303 302 302 301 301 300
317 316 316 316 315 314 314 317 319 320 321 320 320 321 321 320 317 314 314 315 316 315 315 314 313 315 317 314 314 315 313 313 315 316 316 316 316 315 313 311 309 309 312 312 312 313 313 315 317 318 317 314 315 317 319 322 323 327 323 318 321 319 316 317 317 316 316 316 315 316 316 317 318 315 311 308 307 311 312 306 304 304 303 302 301 301 301 300
317 317 316 316 315 314 315 318 319 320 320 320 321 321 319 316 315 314 314 315 317 319 319 317 315 319 320 315 314 314 314 314 315 315 314 315 314 313 312 310 311 313 313 313 312 313 316 318 318 319 316 314 315 315 316 319 320 323 322 320 321 320 318 317 316 316 315 313 316 316 316 319 319 315 313 309 307 309 308 304 304 303 302 302 301 301 300 300
317 317 316 315 314 314 316 318 320 319 319 320 320 319 320 320 319 319 317 316 319 320 321 320 318 319 319 315 314 314 314 313 313 314 313 314 313 312 311 310 314 315 315 321 318 312 314 317 318 317 317 316 314 313 313 314 315 316 317 317 318 317 317 315 315 317 313 313 320 319 317 320 317 314 311 307 308 308 306 305 304 303 302 302 301 301 300 300
317 317 316 315 315 315 317 319 319 319 318 319 320 320 323 325 323 322 322 322 319 315 318 319 315 317 316 314 314 314 314 314 313 313 312 313 313 313 314 312 316 317 317 322 318 311 312 317 319 318 317 315 313 312 312 312 312 313 314 315 316 316 315 314 314 315 313 314 320 318 316 319 316 313 308 306 309 309 305 305 304 303 303 301 301 300 300 299
317 317 316 315 315 316 318 320 319 319 319 320 320 318 317 319 318 317 320 326 323 315 317 318 314 316 315 312 314 313 315 318 317 314 312 312 313 314 315 315 319 320 317 317 316 313 315 317 317 316 313 312 312 312 312 313 313 313 314 314 316 317 317 319 318 316 313 314 321 320 316 317 315 310 306 305 306 305 303 304 303 302 302 301 301 300 299 298
317 316 315 315 315 317 320 320 319 319 320 320 320 317 314 316 316 314 317 326 327 319 319 321 319 319 318 316 315 313 316 319 319 317 312 311 313 315 315 315 317 319 316 316 318 318 319 320 318 313 311 312 313 314 313 313 314 315 317 316 319 319 318 323 323 319 315 313 318 318 315 316 314 308 307 304 304 303 302 302 302 301 301 300 299 298 298 297
317 315 315 316 316 319 320 319 319 320 320 321 319 317 317 318 315 314 318 323 325 321 319 319 319 321 322 318 315 315 316 318 320 318 313 312 314 314 315 316 316 318 316 316 318 318 320 322 318 313 314 314 314 315 314 314 316 320 320 317 318 318 318 321 321 319 319 316 315 314 317 323 318 313 311 306 304 304 302 302 302 301 300 299 298 297 297 296
316 315 315 316 317 319 319 318 320 320 322 321 319 319 318 317 314 313 319 325 326 324 319 315 317 321 319 315 315 316 317 318 319 316 311 311 314 314 314 314 315 318 316 314 315 316 317 317 316 317 316 314 314 316 317 317 318 322 324 319 317 318 318 320 318 317 322 324 318 313 322 333 326 318 313 307 306 305 303 303 302 301 300 299 298 297 296 296
316 316 316 317 318 319 319 320 321 321 323 321 320 320 317 316 315 314 321 329 329 327 323 318 319 319 315 313 314 315 320 320 313 311 311 310 312 314 315 314 315 318 317 315 315 316 317 314 314 318 320 317 316 318 319 318 318 322 324 320 318 316 317 320 319 318 324 327 317 311 319 330 328 324 316 309 308 306 303 303 302 301 300 299 298 297 296 296
316 316 316 317 318 319 320 321 322 321 323 323 321 319 317 317 315 314 324 334 331 326 323 318 316 316 313 310 312 318 325 320 311 309 310 310 310 312 316 317 315 315 315 316 319 320 318 316 314 315 319 320 318 319 319 318 321 326 322 320 322 318 319 322 319 319 323 321 318 317 317 319 323 322 314 309 309 306 304 303 302 301 300 299 298 297 296 296
317 316 316 318 319 319 320 322 322 321 323 323 320 319 319 318 315 317 329 338 331 322 320 316 313 312 310 307 311 318 318 314 315 313 307 308 310 311 316 319 318 318 315 317 324 322 316 317 318 317 318 319 319 321 321 318 322 326 319 318 322 320 321 322 318 320 319 315 321 326 318 316 323 321 311 308 311 310 306 304 302 301 299 298 297 297 296 296
318 317 317 318 319 319 319 321 321 322 323 321 319 320 319 318 317 322 330 335 328 318 316 314 310 309 310 309 311 313 310 310 316 313 307 309 310 310 314 318 320 319 312 315 323 322 314 314 318 320 319 319 321 321 319 319 319 319 316 317 321 321 322 321 319 322 318 315 322 325 319 319 326 325 314 309 313 313 307 304 302 301 299 298 297 297 296 296
319 319 318 319 320 319 319 320 320 322 322 320 321 320 319 320 323 329 332 332 328 319 313 311 311 310 312 313 312 311 309 311 312 311 310 311 311 311 311 312 317 319 316 318 320 319 315 311 313 318 318 320 321 316 313 316 315 313 316 321 323 323 322 322 322 320 318 322 324 321 319 319 324 328 319 312 312 311 307 304 302 301 299 298 298 297 296 296
321 321 320 320 320 320 319 319 320 322 321 321 322 320 321 324 326 332 333 327 326 321 312 312 312 311 313 317 316 312 310 312 311 312 313 312 312 313 311 310 315 321 322 321 320 319 317 313 314 317 316 317 320 315 312 314 314 315 321 324 323 324 322 322 323 320 321 328 325 318 315 315 322 325 317 312 307 306 307 305 301 301 299 299 298 297 296 296
322 322 322 321 321 320 320 320 320 322 321 321 322 321 324 328 328 333 330 325 327 323 316 316 313 311 314 316 315 312 312 313 311 313 315 314 315 315 314 316 318 323 324 321 322 323 320 318 317 315 313 315 322 321 315 316 318 319 322 323 323 324 324 324 326 323 324 324 318 315 315 315 321 320 313 310 305 303 305 304 300 300 299 298 298 297 296 296
323 322 322 321 322 321 320 321 321 321 321 321 322 322 326 329 330 331 329 327 328 321 317 320 316 315 316 315 316 313 312 314 312 312 315 315 316 315 315 318 318 321 323 320 320 321 324 324 318 313 314 316 319 320 318 319 319 317 319 323 324 325 327 331 328 322 323 321 314 315 317 318 324 318 307 304 302 300 302 302 300 299 298 298 298 297 297 296
322 322 321 321 321 321 321 321 321 322 321 320 322 324 326 330 330 328 328 328 327 322 320 320 316 316 316 317 320 315 313 316 312 312 315 313 315 317 317 316 314 318 322 320 319 321 326 328 323 318 317 316 315 316 323 325 318 315 318 320 323 327 330 333 331 326 325 323 316 314 317 325 328 315 303 301 300 299 300 300 299 298 297 298 297 297 297 295
321 320 320 319 319 320 320 321 321 321 320 320 323 326 327 329 329 329 329 328 327 325 323 321 318 316 316 320 321 316 315 319 314 313 317 316 318 322 322 318 314 318 323 322 321 321 322 328 327 319 314 314 314 315 320 323 318 314 315 317 320 324 326 323 321 320 320 321 319 318 320 324 319 307 301 301 300 299 299 299 298 299 298 298 297 297 296 295
319 318 318 317 317 319 319 320 320 320 319 321 325 327 326 326 328 330 327 325 326 325 322 324 323 319 319 322 321 316 317 322 318 314 316 317 319 321 323 323 316 315 319 321 324 323 322 327 324 315 312 313 313 315 316 319 321 315 313 319 318 316 321 322 316 313 314 318 319 319 321 318 312 307 302 301 301 299 299 299 298 298 298 297 297 297 296 296
316 315 315 315 316 318 318 319 319 318 319 322 326 326 324 322 323 325 324 321 323 323 322 325 325 322 323 323 323 321 320 322 319 315 319 320 319 319 321 323 317 313 316 319 324 324 323 327 322 315 316 313 308 314 316 313 317 318 318 320 315 312 318 322 319 317 316 319 319 317 318 319 318 314 305 301 302 301 299 299 299 298 298 298 297 297 297 296
314 313 314 314 315 317 317 318 317 317 319 322 325 326 324 321 319 320 322 320 320 323 325 327 325 324 324 324 325 323 321 323 320 318 322 322 319 320 321 321 317 314 314 315 320 322 319 325 323 314 315 314 309 315 319 311 310 316 319 316 314 318 321 318 318 321 320 320 323 319 314 315 318 317 313 309 306 302 300 300 299 298 298 297 297 297 296 295
312 314 315 313 314 317 317 317 316 317 320 323 326 326 322 322 320 319 322 321 322 324 326 327 325 324 325 325 326 324 321 323 320 319 323 322 320 320 318 319 318 315 315 314 319 322 317 321 324 314 312 315 313 315 321 316 310 311 313 311 313 319 321 319 318 320 320 319 322 320 315 316 318 317 320 318 308 301 301 300 299 299 297 297 297 296 296 295
311 316 316 312 314 317 316 315 316 318 321 322 324 323 319 320 321 320 321 321 322 323 324 326 325 325 325 324 324 324 323 323 320 320 323 321 321 320 316 318 318 316 316 314 315 319 316 318 323 318 312 314 317 318 319 318 314 314 315 315 315 315 316 319 316 317 321 321 323 322 316 320 321 315 316 315 306 301 300 300 299 298 297 297 296 295 295 294
311 319 316 311 314 316 314 316 318 320 321 320 320 319 317 319 321 321 320 319 321 320 320 323 324 324 325 324 325 325 324 324 322 322 323 321 321 320 316 317 319 316 316 315 315 318 319 319 321 321 317 318 321 318 313 314 316 315 316 317 317 316 317 319 317 316 318 319 323 322 316 319 319 309 308 309 306 302 300 299 299 298 298 297 296 295 294 293
313 319 314 311 314 314 315 319 320 320 321 321 319 318 317 318 319 321 320 319 320 320 319 320 322 323 323 324 326 325 323 325 324 323 324 322 322 321 315 314 316 316 318 320 318 317 319 321 320 320 320 319 318 313 309 311 314 315 316 317 317 317 318 319 319 319 318 316 319 319 317 317 311 305 305 306 305 303 300 300 300 298 298 298 297 296 294 293
313 315 311 311 313 313 316 321 320 320 321 320 318 318 318 318 319 320 320 319 320 320 321 321 321 321 322 321 322 323 323 323 323 323 325 323 321 317 313 313 315 316 320 321 318 315 316 319 319 320 321 318 315 314 312 311 313 315 316 316 317 318 318 318 318 320 321 319 318 318 318 316 309 305 305 304 302 302 300 300 300 299 299 298 297 296 295 294
311 311 310 311 312 313 318 321 320 320 319 318 318 318 317 318 319 319 319 320 320 320 321 321 320 320 321 320 321 322 322 321 321 321 321 322 319 312 310 313 312 313 319 320 318 318 318 318 319 320 320 319 317 319 317 314 315 317 317 315 315 317 317 316 315 317 318 318 318 317 317 316 311 306 305 304 302 301 299 299 300 300 300 299 298 297 296 295
308 308 309 310 311 312 316 317 317 319 318 318 318 318 317 317 317 318 319 319 320 319 319 319 319 320 320 320 320 319 319 320 320 319 317 319 318 311 310 312 310 312 316 316 315 317 318 318 319 318 320 321 320 320 318 317 317 316 316 316 314 314 316 316 316 317 316 317 317 316 316 316 311 306 305 305 303 302 301 300 300 301 301 300 298 298 297 296
308 309 309 311 311 311 313 312 313 316 317 317 318 318 317 318 316 316 318 319 319 317 317 317 317 318 319 319 320 319 317 317 319 318 317 319 319 313 309 309 309 311 313 312 311 315 317 317 317 317 318 318 319 318 315 315 318 317 316 317 316 314 314 315 317 316 316 316 316 314 314 315 313 310 308 308 307 306 304 302 301 302 303 302 300 299 298 296
308 309 309 310 311 311 312 313 313 314 314 316 318 317 317 318 316 315 316 318 318 317 317 317 316 317 318 318 318 318 318 317 317 316 317 318 318 311 307 306 307 309 310 309 310 313 316 316 315 315 316 314 314 315 312 312 316 317 316 316 315 313 312 314 314 313 313 315 315 313 312 313 313 311 311 311 310 307 305 303 302 303 304 303 300 299 297 296
305 307 307 307 310 312 312 313 313 313 313 314 315 317 317 317 317 316 315 315 315 316 317 317 316 317 318 318 317 318 317 317 316 315 315 316 315 312 309 307 306 307 309 307 308 312 316 316 314 312 314 312 310 310 310 309 311 313 314 314 313 311 311 311 311 310 311 312 313 312 310 311 311 309 309 312 311 308 307 305 303 302 302 301 300 298 297 295
303 304 304 304 307 310 311 312 313 313 313 313 313 315 315 315 315 315 314 314 315 315 316 317 317 316 316 316 316 316 317 317 317 316 315 315 314 313 313 312 308 306 307 308 308 310 314 315 311 310 312 310 306 306 306 305 307 309 309 310 310 308 307 307 308 308 308 309 309 308 308 308 307 306 307 310 311 309 306 303 302 302 303 302 301 299 297 295
302 303 303 303 304 305 308 311 311 313 313 312 312 312 311 312 313 312 313 315 315 314 314 316 316 315 315 315 315 315 316 316 315 315 315 315 314 312 313 315 311 306 306 308 308 308 311 312 309 308 311 308 303 303 304 303 305 306 307 307 306 305 304 304 305 304 304 305 305 305 305 305 304 303 304 307 308 306 304 304 304 303 302 302 301 299 297 294
298 297 298 302 304 304 307 309 310 312 313 312 313 312 310 311 311 311 311 313 313 314 314 315 315 314 314 313 314 314 314 314 315 315 315 314 313 312 312 314 312 309 308 307 307 308 309 309 307 308 312 308 301 301 302 302 302 303 304 304 302 303 304 304 303 303 303 304 303 303 303 303 302 302 302 303 304 303 304 305 304 301 300 301 302 301 297 294
295 295 295 300 304 305 306 308 309 309 310 311 311 311 310 310 310 310 310 310 310 310 311 313 313 312 313 313 312 312 311 311 310 307 306 308 309 309 309 309 309 309 309 306 307 308 307 308 308 308 311 307 300 299 301 302 304 304 303 302 301 301 302 301 301 302 302 302 302 302 301 301 300 300 300 300 301 301 301 301 301 300 300 299 299 299 296 293
Wind_Speed
3 2 2 2 2 3 3 3 3 4 4 4 4 4 4 4 4 4 4 5 5 6 6 7 8 9 10 11 12 14 16 16 16 14 9 7 4 6 4 2 2 2 3 4 6 5 3 2 1 3 3 2 3 2 3 3 2 4 3 3 1 3 3 5 6 5 3 3 6 4 3 2 5 5 4 4 4 5 4 4 5 5 6 8 11 10 9 8
4 4 3 2 2 2 2 3 3 4 4 4 4 5 5 5 5 5 5 5 5 6 6 7 8 8 9 10 11 13 16 17 16 11 6 3 3 7 4 2 1 2 3 4 6 5 4 1 0 4 5 2 2 3 2 2 3 3 3 2 3 5 5 5 7 5 3 4 6 5 2 4 5 3 2 4 8 7 7 8 3 4 9 10 14 12 9 7
5 5 4 4 3 3 3 3 3 3 4 4 4 4 4 5 5 5 5 5 6 6 7 7 7 8 8 9 10 13 15 14 9 4 2 3 7 7 5 3 1 3 4 4 6 5 4 3 3 4 4 2 1 3 3 2 1 2 4 1 6 6 4 5 6 6 6 4 5 6 2 2 6 3 0 2 7 9 7 8 4 6 10 9 10 8 7 6
6 5 5 5 4 4 4 4 4 4 4 4 4 4 4 4 4 4 5 5 5 5 6 7 7 7 8 8 9 11 13 9 3 2 3 5 7 6 6 4 3 5 5 4 5 4 2 3 4 4 4 2 4 3 1 2 0 1 4 4 6 4 2 6 7 7 7 4 3 4 3 5 5 2 2 1 4 9 8 7 6 8 10 9 9 7 7 6
5 6 6 6 5 5 5 4 5 4 4 4 4 4 4 4 5 5 5 5 5 5 6 7 7 7 7 8 8 9 9 5 2 2 4 5 5 5 4 3 3 5 6 5 5 5 2 4 5 5 4 1 3 3 2 3 3 2 3 6 5 4 3 7 5 5 4 2 3 5 6 6 3 0 3 4 4 8 9 6 7 8 8 8 8 8 7 5
4 5 6 6 5 5 6 5 5 4 4 4 4 4 4 5 5 5 5 5 5 5 6 7 7 7 7 7 6 5 4 0 4 2 4 5 3 2 2 1 3 6 8 6 4 4 3 4 5 3 3 1 1 2 4 3 2 2 4 3 4 4 4 6 3 3 1 1 5 5 4 3 5 7 4 7 10 11 11 9 7 5 5 7 7 7 8 6
4 5 6 6 6 6 6 5 4 4 4 4 4 5 5 6 6 6 6 6 6 6 7 7 8 7 6 5 4 3 3 4 8 5 6 5 5 4 2 3 4 6 9 8 4 4 4 4 2 3 4 2 2 4 4 2 2 2 4 4 4 3 5 7 5 6 4 4 8 3 4 4 5 8 2 6 12 12 12 10 6 6 7 7 7 8 8 8
4 5 7 7 6 6 6 5 5 4 4 4 4 5 5 7 7 7 7 7 7 7 7 7 7 6 5 2 0 3 2 7 10 8 9 8 8 7 6 5 5 6 9 9 6 5 4 4 4 4 3 1 4 3 2 1 2 3 5 4 3 2 6 7 6 8 7 6 6 2 5 8 8 4 3 12 15 10 7 6 7 6 8 9 10 10 8 9
5 6 8 7 7 7 6 6 5 4 4 4 4 5 6 7 7 8 8 8 7 7 7 7 7 5 3 1 4 2 4 6 6 6 7 8 8 8 8 6 6 7 8 7 6 7 5 4 4 4 4 3 4 3 1 1 2 5 5 3 4 5 6 7 7 8 5 4 3 3 9 8 5 2 4 14 14 6 6 8 8 7 10 9 9 9 9 9
7 7 8 8 8 8 7 7 6 4 4 4 5 5 6 7 7 8 8 8 8 7 6 5 5 3 4 3 6 1 5 3 3 5 5 5 6 8 8 6 6 7 8 5 6 7 5 5 4 4 4 3 4 2 1 3 3 4 3 4 5 7 7 4 7 8 3 4 5 6 11 7 3 1 4 10 3 6 10 9 8 9 9 8 8 7 9 11
7 7 7 8 9 10 8 7 6 4 4 5 5 5 6 7 7 8 8 8 8 6 6 4 4 3 4 4 5 4 5 3 4 4 4 4 5 6 7 6 6 7 8 5 6 8 4 5 6 5 2 2 3 0 2 3 2 2 1 5 6 7 7 6 7 8 3 3 5 8 7 5 2 0 8 8 4 9 9 8 9 10 7 7 8 7 9 10
7 8 8 10 11 11 8 7 6 5 4 4 4 5 5 6 7 8 8 8 7 6 6 4 3 5 4 2 5 10 8 4 4 3 3 3 4 6 5 5 5 6 7 4 5 7 5 5 7 4 2 3 2 1 2 3 1 1 2 5 8 7 8 8 5 3 1 2 4 6 3 6 1 6 10 6 8 7 9 9 8 8 6 6 6 6 7 10
9 10 10 11 11 10 9 7 5 5 4 4 4 5 6 7 7 8 8 7 6 6 5 4 4 6 5 0 6 12 14 11 8 6 4 4 5 5 5 4 4 5 6 5 4 5 4 6 8 4 2 5 1 2 2 2 1 2 3 1 6 7 7 8 1 3 2 2 4 4 3 7 6 11 8 6 8 7 10 8 6 6 5 6 6 6 6 10
11 12 13 11 10 9 8 6 5 4 4 3 4 5 6 7 7 7 6 6 5 5 5 3 5 7 4 3 6 7 11 11 11 9 6 6 6 5 4 4 4 4 4 4 5 5 4 5 6 3 1 3 1 1 3 6 3 2 2 1 3 2 5 8 1 1 3 2 1 3 2 6 9 12 5 5 6 8 8 5 6 5 5 5 5 6 6 8
13 13 13 11 10 9 7 5 5 4 4 4 4 5 6 6 7 6 5 4 3 3 2 3 6 6 1 5 6 5 7 8 10 11 9 8 7 5 5 6 4 4 5 5 6 5 4 4 5 3 1 1 3 2 2 4 3 2 1 3 3 2 5 10 5 3 2 2 2 4 2 6 8 12 5 6 8 9 7 5 5 5 5 5 5 6 5 6
14 14 13 11 10 8 7 6 5 4 4 4 4 5 5 6 5 3 3 2 1 2 3 4 6 5 0 4 2 3 5 6 7 10 9 9 8 5 6 8 6 6 6 6 5 4 3 3 2 1 1 1 4 4 3 4 4 3 1 4 3 3 3 7 5 1 2 1 3 2 2 5 6 10 7 8 10 9 6 5 6 6 6 6 5 6 5 6
15 14 14 13 11 9 7 6 5 4 3 4 4 5 5 4 2 1 0 3 5 5 5 3 5 3 2 2 1 3 4 6 6 8 10 9 8 7 7 7 4 6 6 4 4 2 2 3 1 1 2 2 3 5 3 3 5 3 0 3 4 4 3 4 4 3 4 4 2 1 2 6 8 10 8 10 10 6 6 6 6 6 5 5 5 5 6 7
14 14 14 13 12 9 7 6 5 4 3 3 4 5 3 1 2 2 4 7 6 5 3 1 3 1 3 2 2 3 2 4 5 7 10 9 8 8 6 5 5 7 6 3 2 2 2 3 2 1 3 2 3 5 3 5 6 4 3 3 3 3 4 5 5 4 5 5 2 3 3 8 11 9 7 9 8 6 8 6 6 6 6 5 5 6 6 7
15 14 14 12 11 9 8 7 5 3 2 3 4 2 1 2 2 2 4 4 3 2 1 3 4 2 3 3 2 1 3 5 6 7 8 8 8 7 6 5 6 6 4 1 1 0 1 3 3 1 2 3 5 7 9 9 7 6 5 4 4 4 5 5 5 5 2 4 5 5 6 8 9 7 7 8 7 8 7 6 6 5 5 5 5 5 6 7
15 14 12 11 10 9 8 7 5 1 3 4 2 2 3 2 2 1 2 3 5 5 2 5 7 2 3 3 2 4 4 5 4 5 8 9 10 8 5 4 5 4 2 3 2 0 3 3 2 5 7 8 10 11 11 5 3 3 2 3 4 5 6 5 5 6 1 0 6 5 4 8 6 4 5 6 5 7 6 6 6 5 5 4 5 5 6 6
16 13 12 10 10 9 8 6 3 1 3 4 0 2 2 3 1 2 2 3 9 10 6 6 8 6 5 2 5 7 4 1 0 3 8 9 10 8 1 2 4 0 2 3 2 2 3 5 7 10 10 8 7 9 7 4 1 1 3 4 4 5 7 7 6 6 1 3 5 2 3 9 5 3 4 4 5 6 5 5 5 5 5 4 5 6 5 5
16 14 12 11 9 8 8 5 2 1 3 3 2 2 2 2 2 1 1 2 8 9 9 8 6 8 8 5 6 5 3 1 2 2 9 9 6 5 2 3 4 3 1 3 2 1 1 4 10 13 7 2 1 4 5 5 5 3 2 2 5 4 4 7 5 5 2 3 4 3 4 8 3 4 4 5 6 4 4 5 5 5 5 5 5 5 5 5
17 15 12 10 9 8 7 4 3 3 5 4 3 3 2 2 3 2 3 0 6 4 5 7 5 6 7 6 7 7 3 5 4 4 10 10 3 4 4 4 5 3 2 4 4 3 3 6 11 10 4 3 3 3 6 3 2 3 3 2 5 3 1 4 5 4 2 0 2 2 4 6 1 3 5 6 4 5 5 6 6 5 6 6 5 4 5 6
17 16 14 11 9 9 6 3 4 5 6 6 5 4 3 3 5 3 2 0 4 4 4 7 5 5 6 4 7 10 6 5 4 4 12 12 4 2 4 5 5 3 4 7 8 7 7 7 4 3 5 6 6 3 6 5 2 3 5 5 5 5 6 6 4 4 3 3 2 2 4 5 2 1 2 4 4 5 5 5 7 6 5 5 5 5 6 6
15 16 13 10 9 8 5 2 5 5 4 5 5 5 5 5 5 4 2 1 3 5 4 4 3 4 5 3 7 9 3 2 3 3 10 12 6 4 2 3 4 5 7 7 7 6 8 6 3 5 3 5 5 5 5 7 3 4 5 10 11 8 8 6 3 5 4 3 3 4 3 5 4 3 3 3 3 4 4 5 6 5 5 5 5 5 5 6
14 14 12 9 9 9 4 2 3 5 4 4 5 6 7 6 5 5 3 3 4 4 2 2 3 4 6 3 4 6 3 3 2 2 6 8 6 4 2 1 1 4 6 5 3 3 5 5 4 5 4 5 4 5 5 7 5 2 5 9 10 7 5 4 2 2 0 3 3 3 1 5 5 4 5 5 4 3 3 5 5 4 5 4 4 4 4 5
15 14 13 10 10 12 7 2 6 7 2 4 7 9 7 6 5 4 3 3 5 3 3 1 0 3 5 2 2 6 3 3 2 3 3 4 2 3 2 3 1 2 3 3 1 3 4 3 2 5 5 5 5 4 6 8 6 3 4 4 7 6 6 6 5 3 3 3 4 2 2 4 5 5 4 7 6 3 2 3 3 3 4 4 4 4 4 4
18 16 16 13 13 15 9 4 7 8 3 4 10 11 7 6 5 2 4 1 4 2 3 1 1 2 2 1 3 4 2 0 4 1 1 4 1 2 1 5 6 4 2 5 4 5 2 2 4 6 5 4 5 3 7 9 4 5 3 6 6 6 6 5 5 2 1 1 4 4 0 2 5 4 0 5 4 2 3 3 2 2 3 3 3 3 4 4
20 18 17 16 14 15 11 6 6 7 4 7 11 11 8 6 4 4 3 3 2 2 1 1 2 1 1 2 3 2 1 2 2 2 2 3 1 3 3 5 6 5 1 3 5 4 0 3 5 7 5 6 3 1 5 8 4 4 5 6 5 5 5 4 4 3 2 1 5 6 3 2 5 4 0 2 2 4 5 4 3 3 3 2 2 2 3 4
21 19 19 18 16 16 14 13 13 8 6 11 12 10 9 5 2 3 3 5 1 1 0 1 2 0 4 5 0 2 1 1 1 1 2 1 2 5 2 3 5 4 1 3 2 4 2 2 3 5 4 5 4 3 2 4 3 4 6 6 6 5 5 4 2 3 2 3 6 8 8 5 4 5 2 3 2 3 6 5 4 4 3 2 1 1 2 3
24 22 21 22 21 20 14 11 19 16 9 13 14 10 8 3 1 4 6 3 2 1 1 1 1 2 5 6 2 1 2 1 1 2 1 1 2 4 2 2 3 3 3 4 3 4 4 2 2 2 2 4 6 4 3 3 4 5 4 4 3 3 4 4 4 3 1 5 5 5 4 5 4 4 2 2 3 2 5 8 9 8 5 4 3 2 2 2
28 26 26 26 25 24 16 10 18 21 15 14 14 8 4 2 3 5 4 1 1 2 3 3 2 4 5 3 2 3 3 1 1 3 3 2 2 3 2 3 4 3 2 4 3 4 3 4 3 3 1 4 6 4 3 5 5 5 4 5 3 3 3 3 3 0 3 5 3 2 1 2 6 4 0 3 5 5 4 7 11 11 9 6 4 4 2 2
29 28 28 29 28 27 24 15 12 18 22 19 10 3 3 3 5 5 3 1 1 1 3 3 2 4 6 4 2 3 3 2 3 2 2 3 3 3 3 3 6 4 0 3 2 1 3 5 1 0 3 2 7 5 1 1 1 4 5 4 4 2 0 2 3 2 4 4 2 2 0 1 5 2 0 4 5 5 4 4 9 9 9 7 5 4 3 3
28 27 27 29 30 29 28 22 14 16 24 20 7 2 4 5 3 3 6 4 0 1 2 3 4 5 5 4 4 5 3 2 4 4 2 3 3 3 4 4 5 3 2 2 2 3 2 4 2 5 2 3 7 5 5 5 3 3 4 5 4 4 4 4 4 2 4 3 2 3 1 2 3 1 2 4 3 4 2 5 8 7 6 5 4 4 3 3
25 24 24 24 27 28 28 26 21 20 22 14 4 3 6 6 1 2 5 4 1 1 2 2 5 5 3 2 3 5 4 2 4 4 2 3 3 4 4 5 6 5 3 3 2 2 3 5 6 3 1 4 5 3 5 6 2 1 2 4 2 4 4 2 3 4 2 2 3 2 3 3 4 1 2 1 3 5 5 6 7 6 5 5 4 4 4 3
20 19 18 18 22 26 28 26 23 23 19 8 3 6 6 4 2 2 3 2 3 4 3 2 3 4 3 2 2 5 2 1 4 3 1 3 3 4 4 4 6 8 6 4 2 2 2 4 5 3 1 3 4 3 3 3 3 2 2 3 4 4 6 3 2 1 3 1 4 1 2 4 1 1 3 3 4 4 4 5 6 6 5 5 5 5 4 4
18 15 12 13 18 24 26 24 23 24 15 4 5 7 2 1 3 3 1 2 3 4 4 1 1 3 4 2 2 4 2 1 2 2 2 2 2 4 4 3 4 10 10 4 2 3 3 4 5 1 2 1 0 4 4 2 3 5 2 5 3 2 4 3 1 3 3 3 4 1 3 3 1 1 3 3 2 3 4 5 5 5 5 6 6 5 5 5
18 12 6 9 15 18 21 22 23 19 7 3 9 8 2 2 3 2 2 3 3 3 3 3 3 2 4 3 2 3 4 3 3 3 3 2 2 4 4 3 3 7 8 4 1 2 3 2 6 1 2 2 3 4 3 4 2 5 3 3 3 3 1 2 2 2 2 3 4 2 2 3 4 4 2 4 7 8 7 6 7 8 8 8 7 7 6 5
15 7 1 7 13 15 18 22 19 11 3 5 10 7 2 2 3 2 3 2 3 3 3 3 2 2 3 4 3 3 4 4 5 4 3 3 3 3 4 3 2 1 2 5 4 1 2 2 4 3 1 1 3 2 3 2 1 2 1 1 2 2 4 2 2 3 2 2 4 5 4 3 5 5 6 9 11 11 10 9 10 12 11 9 8 7 6 6
7 3 1 7 14 16 19 20 11 3 4 5 5 3 2 1 2 3 4 3 1 1 2 2 2 3 4 3 3 3 2 3 5 4 2 3 2 2 2 2 3 1 1 3 4 1 2 2 3 3 3 0 1 3 5 6 4 2 2 2 1 1 1 1 1 3 3 2 2 3 5 5 4 3 6 7 7 11 14 13 12 11 10 9 8 8 7 6
2 1 1 7 14 18 18 12 4 2 3 2 1 2 1 1 1 1 2 4 2 1 1 1 2 2 3 3 2 2 2 2 4 3 2 2 2 2 0 2 3 3 2 3 2 2 2 2 2 2 1 3 4 4 4 6 5 5 5 5 5 4 2 1 3 1 2 2 4 3 6 7 4 2 4 3 5 10 12 11 9 9 10 9 8 8 8 7
2 1 1 7 16 17 12 4 1 2 2 2 3 2 2 1 0 1 1 3 2 1 2 1 2 2 2 2 2 2 3 2 3 3 2 3 4 4 0 3 2 2 3 3 2 2 2 3 2 4 3 5 6 4 2 4 3 3 3 3 4 3 4 4 6 3 1 2 2 2 4 5 2 1 2 4 5 7 8 8 8 8 10 10 8 8 8 8
2 1 1 8 14 12 5 3 2 2 3 2 2 2 3 3 1 1 2 2 1 2 2 1 2 2 3 3 2 2 3 2 4 4 3 3 3 2 0 1 1 2 2 2 1 1 2 2 3 4 3 2 4 5 2 0 2 2 1 2 3 3 3 4 5 3 2 3 2 1 5 4 2 2 2 2 3 4 7 9 10 10 9 9 8 8 8 9
2 2 2 6 12 7 3 4 4 5 5 2 1 3 2 2 4 4 4 4 3 3 3 3 3 4 5 3 4 5 4 3 4 4 3 3 2 1 2 1 1 1 2 2 2 2 2 1 2 3 3 2 3 3 3 2 0 2 2 1 2 3 5 2 2 3 2 5 6 4 7 5 1 2 3 3 3 4 5 7 8 9 9 8 8 8 9 9
2 2 2 3 8 5 2 2 2 4 7 6 6 6 3 2 3 6 6 6 4 4 3 2 2 4 4 3 3 5 5 4 4 3 3 2 2 2 3 3 1 3 2 0 2 3 2 2 3 4 7 7 4 3 3 2 1 1 1 2 2 4 6 3 2 3 4 4 6 6 7 4 2 1 2 3 2 3 4 5 6 6 7 8 7 8 8 8
3 1 1 0 3 3 1 1 1 2 4 5 5 6 8 7 3 2 6 7 4 4 3 1 1 2 3 5 5 5 6 5 4 3 3 3 2 2 2 3 1 2 0 3 4 3 2 2 4 6 9 8 4 4 3 2 3 2 3 4 4 4 5 4 3 4 4 2 4 6 3 1 4 3 2 3 3 5 5 6 6 5 5 6 7 7 7 7
2 2 3 3 1 3 3 1 2 2 2 4 4 3 8 11 5 1 5 5 4 5 3 1 3 4 4 5 5 6 6 6 6 4 3 3 2 2 2 1 0 0 2 3 2 2 3 2 5 8 9 6 4 4 2 2 4 5 5 6 6 4 6 7 6 5 4 3 6 7 4 3 8 6 5 6 6 5 6 6 7 7 7 7 6 6 6 6
1 1 2 2 1 4 6 5 7 6 5 5 3 0 4 10 8 5 4 1 1 5 5 2 5 9 8 7 6 5 5 6 7 5 3 2 1 1 1 1 1 1 2 1 1 2 4 4 4 5 5 3 2 2 2 2 2 4 5 7 7 6 7 8 6 4 5 5 8 5 4 6 10 6 5 7 7 7 7 8 7 7 7 6 5 6 7 7
1 0 2 1 1 3 5 5 7 10 10 7 4 3 4 8 9 6 2 2 1 4 7 7 8 9 9 7 6 5 6 6 5 4 4 3 3 3 1 1 1 1 3 2 0 1 3 2 1 3 2 0 1 3 2 3 2 3 5 8 9 7 6 6 5 7 7 7 9 6 4 8 11 7 5 6 7 7 5 4 5 6 7 7 7 7 8 9
2 0 1 1 1 1 2 3 7 7 8 7 8 8 5 6 8 5 2 5 6 4 6 11 10 7 8 8 9 10 10 7 5 5 6 5 4 4 3 3 2 2 1 2 1 1 1 1 1 2 1 1 3 4 3 2 1 4 9 13 9 3 3 6 8 6 3 6 9 8 8 12 11 5 4 4 4 4 4 5 7 7 8 7 7 8 9 9
2 1 1 2 2 2 2 3 6 5 6 7 9 8 7 9 9 6 2 5 7 5 6 11 10 5 5 8 11 13 11 8 8 8 9 9 7 5 4 4 6 5 3 2 1 1 2 1 2 3 1 3 1 3 3 3 2 5 14 17 9 4 6 8 5 5 6 8 10 8 8 11 8 1 3 2 3 5 7 8 7 7 6 7 8 9 10 10
3 2 2 3 2 2 3 3 5 6 6 7 9 9 9 9 7 7 4 2 1 2 4 7 7 4 4 8 11 11 7 5 5 4 4 4 3 4 3 3 5 6 6 5 2 1 3 3 2 2 3 2 1 2 3 4 2 7 12 10 8 10 11 6 2 7 10 8 6 7 8 9 4 1 1 4 5 7 8 8 7 7 7 8 9 10 9 9
Wind_Direction
277 278 291 308 301 297 292 287 290 300 308 307 310 308 309 314 315 317 314 318 318 320 324 323 328 330 331 334 334 333 331 329 326 317 302 298 264 205 215 275 280 222 199 165 163 157 119 92 91 47 46 45 13 336 351 1 52 52 74 101 240 199 202 191 187 197 178 275 272 317 22 176 278 304 319 321 301 301 318 286 258 281 278 252 264 285 309 309
282 279 280 289 283 288 297 292 290 291 297 303 310 308 307 310 313 316 312 315 316 317 321 321 325 326 331 336 335 336 334 329 324 316 310 315 173 173 181 190 222 193 182 172 181 165 122 137 129 61 44 39 352 349 2 349 65 81 112 124 234 203 212 197 185 204 202 259 267 297 308 204 239 269 350 303 286 318 325 293 251 272 286 282 279 286 304 295
291 291 287 283 276 274 277 284 288 289 296 302 309 311 312 308 311 320 318 315 314 317 319 319 323 325 333 336 339 342 335 332 326 317 28 95 138 149 146 145 161 171 179 178 190 177 127 153 144 90 45 44 329 2 29 1 52 140 124 147 244 214 234 235 199 215 230 242 277 297 301 218 243 244 340 260 285 307 294 279 281 289 294 295 287 298 317 292
296 296 295 293 287 277 277 282 287 296 310 311 312 316 315 308 306 317 323 321 316 319 318 319 323 325 332 335 342 342 339 347 318 216 118 122 137 139 129 137 161 172 188 173 173 177 128 122 114 83 66 43 328 5 21 289 313 164 139 191 231 189 238 251 216 225 241 216 224 280 329 303 271 202 202 215 311 302 276 248 228 262 286 297 303 321 320 284
303 305 305 300 292 285 287 291 293 300 312 319 319 317 317 309 303 305 314 320 318 319 319 318 317 321 327 332 339 340 357 20 285 216 162 157 146 139 127 138 168 182 187 169 163 162 137 111 90 59 67 58 334 29 266 257 118 158 216 212 206 157 230 266 231 217 222 184 232 294 311 298 301 238 204 193 242 268 272 255 223 242 278 304 317 325 320 288
302 310 310 301 293 290 293 299 301 302 310 319 320 318 319 312 308 308 307 309 311 315 313 308 309 314 318 323 329 345 43 38 264 219 193 192 185 173 138 172 184 195 192 178 166 155 128 79 73 74 71 35 182 183 252 269 109 201 272 266 229 187 224 279 285 241 240 342 279 283 295 321 341 301 226 200 230 243 260 267 267 288 327 331 328 331 335 329
285 303 306 296 291 290 291 297 297 300 310 314 315 317 316 315 314 311 308 306 306 311 307 302 304 304 310 316 316 11 86 242 262 247 233 228 244 251 246 240 207 208 202 192 175 144 116 85 112 148 98 30 197 210 249 310 41 188 261 292 263 211 221 259 283 279 284 278 263 268 328 311 282 286 286 245 247 245 260 282 318 3 27 13 11 12 8 13
276 295 300 293 287 288 290 289 286 293 303 304 307 310 308 310 308 305 307 305 305 308 303 297 298 301 305 289 227 7 339 250 262 258 252 256 263 255 247 241 219 219 206 204 200 156 133 132 173 158 109 237 187 187 224 358 13 193 231 269 278 259 246 267 287 280 275 263 262 291 293 262 237 257 319 273 267 265 271 332 1 34 46 38 39 29 24 32
285 294 297 292 282 282 286 284 278 278 289 291 290 294 297 301 303 303 304 305 308 305 301 295 292 288 271 186 96 10 274 244 263 267 260 261 258 244 237 233 224 220 197 205 202 167 173 181 195 185 174 199 175 188 173 128 268 211 212 259 297 297 289 300 292 270 266 253 236 269 276 269 252 268 280 261 267 310 31 29 5 40 53 44 45 33 27 30
285 293 297 293 283 279 280 278 273 267 275 273 277 285 290 296 300 302 305 310 312 305 304 294 282 264 220 151 98 234 259 244 268 277 281 266 246 234 231 232 229 212 187 189 189 168 176 193 188 158 149 150 160 188 135 156 215 193 195 254 261 282 290 280 271 272 273 252 214 232 270 284 304 353 269 261 273 39 43 28 12 51 60 47 44 33 31 30
275 286 292 286 279 280 279 273 267 259 264 263 273 281 284 295 300 304 310 312 312 308 304 290 270 233 187 143 135 214 258 269 276 282 286 265 233 227 226 231 225 202 189 181 196 194 193 195 160 117 129 183 161 193 246 201 179 164 252 294 279 300 295 247 259 279 288 274 209 193 259 297 8 157 240 263 34 53 53 40 36 59 59 46 45 34 34 29
270 274 279 274 275 282 280 270 262 251 258 263 272 283 291 300 303 307 312 313 313 307 298 289 249 199 158 125 207 230 249 265 279 287 274 247 216 214 209 212 204 198 205 195 202 203 204 197 151 132 217 166 145 304 234 212 140 132 35 323 302 342 318 270 266 289 148 249 197 158 289 308 264 228 243 299 7 38 67 57 46 60 51 42 43 37 38 26
271 272 276 275 276 282 275 266 260 252 255 262 278 296 303 304 307 311 316 316 311 302 292 281 222 182 149 232 240 238 248 255 263 266 253 218 194 192 189 195 194 200 220 213 189 167 170 188 162 160 170 123 192 243 95 43 44 300 25 356 309 356 321 284 2 36 14 234 200 145 295 290 262 251 263 353 1 31 61 60 56 60 50 42 38 39 39 27
267 273 277 276 277 276 268 260 256 251 253 264 284 302 305 307 310 314 321 317 307 295 285 254 187 166 149 249 257 258 254 251 253 246 225 202 182 181 197 202 196 192 202 190 164 132 131 167 150 127 113 117 201 221 32 7 7 314 323 353 337 344 281 294 326 357 333 315 172 126 212 262 277 278 299 29 12 33 52 69 71 61 51 43 34 38 34 28
262 269 272 273 277 271 259 249 245 242 248 262 287 302 305 309 311 319 325 318 310 284 250 162 161 149 99 274 264 266 251 242 241 233 221 209 197 203 209 189 167 144 146 155 145 128 124 141 133 117 222 349 52 58 352 346 4 24 293 302 335 204 265 306 307 189 219 323 56 114 204 268 277 281 310 42 12 21 52 86 77 62 53 42 32 37 30 24
260 263 267 274 278 265 248 242 238 235 248 269 291 298 306 314 313 325 327 326 66 124 122 139 155 138 354 273 252 238 229 224 229 224 213 205 207 213 186 166 147 130 136 140 134 132 105 92 91 123 160 38 69 82 36 358 332 353 196 251 269 220 273 316 321 100 135 18 25 103 226 281 283 280 312 29 5 5 64 95 75 62 49 41 35 34 31 25
257 259 262 268 268 254 239 236 230 234 259 279 293 299 310 311 291 303 74 117 112 111 106 137 149 120 279 238 221 258 223 208 213 206 197 196 204 194 159 144 130 124 119 112 126 119 41 42 30 319 54 59 101 101 57 321 282 308 13 227 251 225 233 297 303 340 49 67 357 337 228 260 271 283 325 11 358 9 83 92 70 62 46 41 38 35 35 31
253 253 255 258 256 243 231 227 221 233 267 289 305 308 316 286 204 177 150 134 108 90 71 110 134 129 273 225 214 241 173 181 184 175 183 184 186 178 150 129 120 113 90 55 59 76 10 14 57 9 17 51 124 116 161 231 219 221 220 217 258 248 230 258 266 297 8 26 316 289 268 263 270 286 337 0 1 49 86 85 73 64 52 45 39 39 36 34
248 248 249 250 242 230 227 223 218 233 299 314 316 327 65 97 124 152 164 152 122 121 206 213 167 159 245 253 238 177 113 145 157 163 171 162 162 155 119 106 104 102 94 65 317 36 115 50 65 161 249 192 181 175 199 216 200 198 210 196 214 245 247 242 249 263 329 348 287 258 261 263 271 302 348 347 8 69 84 79 74 61 55 50 44 43 36 40
249 247 244 239 227 225 230 226 217 219 336 326 346 93 112 99 56 299 220 204 214 208 198 200 196 216 272 266 179 147 133 136 150 172 168 159 154 135 90 71 67 68 118 159 206 339 116 140 184 215 221 206 203 206 211 218 158 155 186 210 215 236 264 261 260 267 186 259 271 251 260 267 270 329 353 335 14 61 67 75 77 64 59 48 46 44 36 41
244 241 238 228 219 225 226 222 208 150 324 316 27 124 168 169 137 275 255 249 243 234 245 227 209 241 260 210 159 155 136 128 257 167 166 166 152 144 129 60 87 69 232 161 149 46 116 178 220 228 224 213 206 210 225 254 256 179 213 254 266 242 259 263 255 276 225 185 264 301 297 274 277 17 359 0 43 43 36 70 78 70 68 52 47 41 33 36
238 235 231 220 216 223 218 214 209 253 299 293 211 196 209 180 153 179 153 283 270 237 235 244 230 253 254 233 205 169 107 229 261 204 170 159 146 175 192 96 143 204 215 131 110 27 188 214 237 238 227 197 187 175 190 228 223 216 198 234 267 251 279 283 277 313 1 180 263 319 296 279 303 61 31 38 63 49 33 57 63 67 67 49 41 33 28 38
236 229 220 216 219 220 211 207 215 260 274 247 217 208 198 157 142 124 107 280 290 252 216 229 223 237 243 246 224 189 195 215 219 233 181 157 143 187 151 133 171 161 136 181 176 172 203 239 242 234 182 174 242 166 143 170 199 188 170 177 250 253 288 280 290 330 357 203 268 284 283 283 297 94 61 50 71 72 55 58 57 58 63 54 44 35 32 40
230 221 213 212 216 209 197 217 247 260 257 230 220 207 179 155 146 130 87 23 287 271 230 219 209 212 222 238 198 183 208 210 192 223 181 161 139 151 161 165 159 148 193 204 192 195 227 245 235 154 140 182 223 205 152 163 230 233 204 199 232 239 216 229 280 326 340 358 3 3 311 295 278 206 98 73 72 68 50 53 55 43 48 52 47 42 36 39
224 214 206 203 205 191 175 245 255 234 210 201 209 193 162 155 146 126 80 9 287 289 274 222 200 207 201 172 170 174 182 215 212 211 176 168 152 136 189 170 144 197 210 196 197 225 249 240 137 105 130 165 196 225 189 170 205 278 232 211 220 227 223 233 306 357 0 334 336 28 343 294 313 296 191 145 66 57 38 43 55 40 36 40 41 39 30 35
218 205 196 198 193 173 163 247 213 176 174 205 205 178 161 154 147 137 88 24 278 265 267 196 176 185 178 139 157 146 103 253 241 120 154 171 160 126 158 177 105 213 197 173 189 231 251 232 158 156 150 139 181 247 226 170 148 279 245 208 211 210 202 203 158 87 274 259 295 45 148 263 312 302 213 168 104 77 56 47 53 44 40 42 41 37 28 30
220 204 193 197 189 173 169 181 168 158 165 227 193 174 170 157 157 165 87 10 280 204 138 214 111 151 168 184 161 138 160 246 94 80 123 148 161 88 135 195 151 205 179 130 204 240 220 215 148 158 138 142 194 248 221 161 130 244 251 156 163 170 173 177 156 167 229 255 318 9 160 250 288 278 219 147 122 96 78 65 58 54 51 52 45 40 37 31
223 211 196 193 195 185 173 144 161 173 211 200 176 173 165 152 164 130 81 294 279 101 108 252 56 96 137 60 79 119 198 219 109 231 358 95 147 65 128 208 176 186 173 135 213 260 193 190 193 166 149 185 210 225 181 156 151 243 212 115 130 146 151 145 128 158 291 353 307 298 193 258 266 275 17 123 146 191 176 163 134 108 77 65 60 48 42 34
218 215 204 193 197 198 194 196 184 191 207 167 164 173 160 151 159 78 79 233 254 76 76 116 114 29 43 92 52 62 41 27 121 241 6 85 120 73 158 205 155 158 153 134 212 257 169 225 203 154 161 206 206 39 167 164 195 218 133 94 68 72 80 79 102 115 33 4 251 240 188 211 270 283 20 137 230 224 184 178 175 149 117 88 76 62 53 46
212 212 206 194 200 209 210 224 217 194 168 162 161 160 150 142 106 107 207 230 146 101 147 111 161 144 105 124 60 354 86 20 8 20 29 73 23 36 129 164 102 121 12 13 244 251 309 285 197 149 177 194 142 78 134 152 148 134 101 67 39 32 42 42 62 87 53 274 247 229 199 184 269 287 209 181 256 208 165 159 181 168 141 143 142 105 76 60
213 210 205 199 210 212 199 220 220 200 172 167 160 142 135 122 81 178 218 226 78 122 135 121 197 134 126 138 163 198 97 21 346 97 103 81 41 39 81 118 80 78 358 331 291 301 333 328 260 236 178 133 100 75 47 47 83 102 87 72 51 342 12 25 359 46 162 252 268 262 209 170 227 266 229 245 298 254 178 170 175 171 162 170 176 164 134 84
217 215 210 205 214 213 202 216 216 203 194 176 158 141 129 154 204 202 227 342 101 195 163 167 196 153 148 126 135 165 137 142 252 130 141 130 141 170 168 170 153 84 333 255 261 337 311 243 267 305 223 136 106 78 24 8 38 85 98 93 87 314 348 349 305 292 226 253 282 288 139 171 236 240 232 293 312 305 259 189 169 164 165 172 176 171 143 86
221 222 218 213 214 215 215 219 210 200 199 187 167 146 134 187 220 196 186 210 205 187 129 130 127 136 143 131 176 179 143 176 191 155 143 112 141 223 257 200 161 132 187 210 204 339 298 293 309 153 277 181 143 147 179 252 123 141 147 132 138 163 57 278 273 278 267 273 294 273 242 266 267 273 347 288 300 302 280 170 154 154 158 162 165 160 128 88
225 227 225 221 216 217 218 217 212 197 191 185 177 164 167 203 235 159 177 207 226 32 44 99 112 116 142 166 204 172 144 209 175 140 118 109 133 224 248 227 180 140 112 136 177 177 203 297 231 178 245 191 171 180 159 142 145 173 158 133 150 160 165 221 227 216 256 285 307 285 251 204 222 242 271 272 312 341 32 113 124 129 138 141 139 138 132 124
225 224 224 220 215 218 218 217 217 199 183 177 174 193 201 214 215 133 185 199 145 60 16 54 110 119 171 224 224 179 167 214 162 129 133 157 172 194 200 208 185 157 136 153 216 167 158 259 257 250 252 156 175 196 124 113 126 210 124 109 170 184 157 183 203 174 191 292 292 245 229 219 183 176 308 338 38 39 62 100 119 128 131 133 145 158 164 167
213 210 214 211 210 215 215 214 210 192 178 166 187 209 217 216 181 181 190 153 143 142 96 43 93 125 198 228 224 207 184 120 150 146 179 188 204 206 210 223 185 174 171 160 201 165 131 270 281 317 334 144 173 188 128 127 180 158 125 175 217 177 124 116 255 41 70 264 268 205 238 287 336 49 348 39 64 64 84 119 136 148 152 155 175 184 184 187
188 187 198 205 210 213 212 209 195 182 177 167 206 215 214 174 187 197 189 114 121 118 104 143 174 147 187 204 222 209 176 95 147 157 190 210 224 193 205 259 190 184 192 180 220 198 154 267 279 202 188 274 206 134 78 29 138 124 178 212 194 123 96 101 231 351 33 242 270 236 215 264 266 261 338 41 114 155 170 168 160 169 175 180 193 195 193 192
166 164 180 204 208 209 209 202 184 174 169 181 212 223 179 164 200 175 147 120 109 106 121 185 202 141 166 194 225 192 170 177 167 164 182 215 239 167 163 227 196 192 202 172 209 238 140 253 286 287 164 301 7 93 65 349 78 130 187 191 116 143 171 99 159 229 244 244 287 303 256 241 212 210 216 205 200 191 189 190 188 192 193 195 198 196 194 188
152 146 194 201 195 197 196 188 175 166 177 199 212 222 169 168 224 186 160 123 85 116 161 198 192 142 168 180 190 185 180 176 166 174 181 184 224 185 151 193 181 190 219 161 171 225 118 203 279 326 342 324 22 91 177 255 1 82 116 92 73 160 170 149 156 169 184 232 281 300 310 272 230 204 188 202 197 180 180 193 198 198 194 195 193 187 188 185
151 137 234 187 185 185 175 168 163 173 208 203 202 194 138 178 245 211 175 153 83 100 179 206 165 167 182 172 178 189 172 161 165 183 201 178 211 220 168 164 146 86 21 150 166 143 95 194 250 311 332 123 173 216 193 184 176 141 152 190 226 153 134 211 216 130 137 174 222 276 287 269 250 200 186 199 188 178 186 192 196 196 192 195 194 186 184 181
161 118 218 177 176 172 160 156 173 199 199 222 144 135 150 172 262 280 135 129 128 69 92 158 183 182 173 167 196 187 133 144 171 183 222 208 210 228 203 73 137 149 91 110 168 208 166 171 207 234 238 192 226 251 212 195 190 173 185 199 191 169 136 215 252 194 131 168 180 212 267 270 263 202 187 189 181 191 196 190 186 188 189 197 200 187 183 182
99 99 206 171 171 169 160 168 211 156 196 222 163 146 149 139 191 261 121 106 129 131 77 102 200 186 176 181 193 160 138 166 191 188 221 224 209 215 255 49 96 130 109 130 195 218 145 126 190 227 217 215 249 281 232 214 189 147 189 197 169 158 140 182 233 225 153 222 174 150 261 273 282 256 225 225 214 201 191 175 171 185 195 200 198 185 183 189
99 106 124 171 177 175 176 222 192 173 245 224 154 166 154 146 200 218 177 163 153 129 125 205 207 210 224 197 164 179 181 194 197 193 221 230 215 224 16 111 118 80 100 158 205 174 114 118 207 252 302 320 303 319 336 334 109 124 231 166 151 173 158 186 216 178 166 224 167 145 249 248 280 298 269 239 210 181 176 175 174 185 195 196 190 185 188 192
116 100 36 189 196 197 203 214 198 206 227 223 212 216 169 149 191 188 185 190 179 155 171 195 199 212 218 181 173 200 197 198 213 210 208 205 208 351 19 337 251 164 170 201 189 176 175 153 186 230 273 319 329 321 311 309 214 181 236 239 175 133 106 113 163 135 211 209 163 194 246 236 258 322 0 52 100 148 186 192 186 188 191 192 190 189 193 193
118 94 16 221 216 223 237 215 190 209 214 212 221 220 212 234 210 188 183 186 179 153 161 218 206 189 192 171 183 210 208 216 231 220 200 215 263 331 2 348 293 214 241 304 117 127 149 167 162 197 228 235 228 215 223 237 211 176 223 247 222 154 139 143 150 180 227 196 162 211 248 255 297 335 22 33 111 163 203 209 212 213 199 194 193 190 192 192
129 141 101 169 254 261 256 121 110 209 211 202 215 218 213 224 246 188 184 197 192 145 128 273 145 143 189 184 189 220 225 224 225 202 185 206 252 282 295 322 300 205 221 87 108 97 101 183 196 205 228 238 225 221 214 143 153 195 227 222 211 189 170 159 159 200 211 167 207 235 228 295 282 240 206 247 209 198 214 207 212 229 217 204 205 202 197 191
131 167 164 149 219 247 238 203 183 204 200 195 208 216 211 216 229 210 193 203 190 163 171 218 166 181 203 181 190 221 215 213 218 203 181 192 243 276 262 263 326 11 66 101 126 103 116 214 215 207 231 244 208 205 190 152 194 201 209 225 218 187 169 184 209 211 158 157 244 238 147 185 262 246 202 217 218 216 232 220 208 220 221 209 203 199 193 188
152 161 189 158 140 210 216 209 199 203 207 205 210 33 212 214 211 206 200 190 146 178 195 225 203 204 200 174 182 211 200 206 217 197 164 161 187 228 272 233 220 1 61 81 342 101 144 227 217 185 224 242 179 182 131 125 228 201 204 229 225 202 192 198 217 206 175 211 254 250 152 202 253 252 194 203 210 208 218 218 213 220 224 209 193 192 194 195
124 27 269 356 59 214 220 192 181 201 208 201 216 239 218 213 214 210 155 113 241 204 195 218 223 206 197 181 177 203 205 198 207 194 172 181 181 168 190 249 231 55 91 123 343 102 154 220 179 151 201 313 338 323 61 81 310 274 255 246 231 218 207 201 221 225 218 242 267 278 263 249 255 243 204 207 209 204 216 225 216 223 226 212 200 203 205 203
125 178 226 60 44 256 254 165 167 201 209 196 218 229 208 207 216 212 155 187 218 212 191 220 225 192 189 195 194 216 219 192 196 206 177 182 207 189 197 213 169 100 94 150 193 264 188 170 99 101 102 315 323 340 31 55 294 277 271 260 251 251 237 227 230 229 233 257 258 263 268 265 261 233 190 217 206 192 234 239 223 224 224 213 209 214 214 209
114 30 81 123 191 190 173 168 167 193 206 199 216 215 202 214 209 187 209 221 212 201 190 212 220 193 193 210 211 226 227 198 212 218 184 185 206 194 200 201 157 147 170 172 177 221 181 164 63 79 173 247 332 49 58 47 25 283 267 259 251 246 248 243 221 197 206 230 245 250 251 257 264 153 130 201 182 193 230 237 233 238 226 212 218 221 217 209
128 5 49 115 200 195 169 163 162 188 209 207 213 209 208 218 187 163 211 262 133 192 192 193 198 185 202 222 226 234 226 180 202 217 158 155 143 115 134 159 141 149 168 167 148 128 155 150 118 132 199 227 82 101 100 64 14 271 260 243 214 222 241 252 248 229 217 202 216 233 238 251 269 92 197 245 218 214 231 233 232 241 228 214 221 224 217 209